Flight Track Log - Related Links

Times and Time Zones

All times are in EDT time to prevent confusion due to time zone crossing. See the SWA2005 flight status page for this flight to view local times or setup timezone preferences in your user account.

Time Position Orientation Groundspeed Altitude Reporting Facility
EDT Latitude Longitude Course Direction KTS MPH feet Rate Location/Type
Mon 10:16:17 AM 39.8833 -104.8500 298° West 250 288 9,100  Level Denver TRACON
Mon 10:17:11 AM 39.9167 -104.9167 303° West 282 325 11,000 2,513 Climbing Denver TRACON
Mon 10:18:14 AM 39.9506 -105.0231 293° West 295 339 14,000 2,880 Climbing Denver Center
Mon 10:19:16 AM 39.9619 -105.1236 278° West 281 323 17,000 2,537 Climbing Denver Center
Mon 10:20:17 AM 39.9733 -105.2317 278° West 278 320 19,200 1,902 Climbing Denver Center
Mon 10:21:19 AM 39.9844 -105.3353 278° West 291 335 20,900 1,659 Climbing Denver Center
Mon 10:22:20 AM 39.9806 -105.4458 267° West 304 350 22,600 1,756 Climbing Denver Center
Mon 10:23:22 AM 39.9775 -105.5692 268° West 308 354 24,500 1,707 Climbing Denver Center
Mon 10:24:23 AM 40.0053 -105.6747 289° West 314 361 26,100 1,463 Climbing Denver Center
Mon 10:25:25 AM 40.0097 -105.7889 273° West 311 358 27,500 1,403 Climbing Denver Center
Mon 10:26:27 AM 40.0139 -105.9003 273° West 306 352 29,000 1,463 Climbing Denver Center
Mon 10:27:28 AM 40.0175 -106.0133 272° West 310 357 30,500 1,317 Climbing Denver Center
Mon 10:28:30 AM 40.0214 -106.1244 273° West 306 352 31,700 1,113 Climbing Denver Center
Mon 10:29:32 AM 40.0244 -106.2328 272° West 299 344 32,800 968 Climbing Denver Center
Mon 10:30:34 AM 40.0289 -106.3411 273° West 296 341 33,700 585 Climbing Denver Center
Mon 10:31:35 AM 40.0322 -106.4503 272° West 299 344 34,000 146 Climbing Denver Center
Mon 10:32:37 AM 40.0353 -106.5681 272° West 309 356 34,000  Level Denver Center
Mon 10:33:39 AM 40.0403 -106.6947 273° West 312 359 34,000  Level Denver Center
Mon 10:34:41 AM 40.0414 -106.8033 271° West 313 360 34,000  Level Denver Center
Mon 10:35:43 AM 40.0453 -106.9319 272° West 317 365 34,000  Level Denver Center
Mon 10:36:45 AM 40.0492 -107.0436 273° West 320 368 34,000  Level Denver Center
Mon 10:37:46 AM 40.0525 -107.1728 272° West 321 369 34,000  Level Denver Center
Mon 10:38:48 AM 40.0542 -107.2856 271° West 323 372 34,000  Level Denver Center
Mon 10:39:50 AM 40.0575 -107.3969 272° West 322 371 34,000  Level Denver Center
Mon 10:40:52 AM 40.0603 -107.5281 272° West 324 373 34,000  Level Denver Center
Mon 10:41:54 AM 40.0628 -107.6397 272° West 324 373 34,000  Level Denver Center
Mon 10:42:56 AM 40.0658 -107.7697 272° West 322 371 34,000  Level Denver Center
Mon 10:43:58 AM 40.0672 -107.8817 271° West 323 372 34,000  Level Denver Center
Mon 10:45:00 AM 40.0711 -108.0128 272° West 323 372 34,000  Level Denver Center
Mon 10:46:41 AM 40.0800 -108.1986 274° West 321 369 34,000  Level Salt Lake Center
Mon 10:47:04 AM 40.0819 -108.2547 273° West 323 372 34,000  Level Denver Center
Mon 10:48:06 AM 40.0869 -108.3678 273° West 326 375 34,000  Level Denver Center
Mon 10:49:08 AM 40.0925 -108.4994 273° West 328 377 34,000  Level Denver Center
Mon 10:50:10 AM 40.0978 -108.6128 274° West 328 377 34,000  Level Denver Center
Mon 10:51:12 AM 40.1022 -108.7467 273° West 331 381 34,000  Level Denver Center
Mon 10:52:14 AM 40.1072 -108.8608 273° West 331 381 34,000  Level Denver Center
Mon 10:52:50 AM 40.1103 -108.9381 273° West 332 382 34,000  Level Salt Lake Center
Mon 10:53:52 AM 40.1139 -109.0522 272° West 331 381 34,000  Level Salt Lake Center
Mon 10:54:53 AM 40.1194 -109.1881 273° West 335 386 34,000  Level Salt Lake Center
Mon 10:55:21 AM 40.1208 -109.2439 272° West 330 380 34,000 -67 Level Denver Center
Mon 10:56:23 AM 40.1256 -109.3594 273° West 333 383 33,900 -505 Descending Denver Center
Mon 10:56:56 AM 40.1278 -109.4372 272° West 333 383 33,200 -1,137 Descending Salt Lake Center
Mon 10:57:58 AM 40.1308 -109.5469 272° West 322 371 32,100 -1,122 Descending Salt Lake Center
Mon 10:58:59 AM 40.1347 -109.6667 272° West 299 344 30,900 -976 Descending Salt Lake Center
Mon 11:00:01 AM 40.1381 -109.7706 272° West 301 346 30,100 -439 Descending Salt Lake Center
Mon 11:01:02 AM 40.1408 -109.8736 272° West 298 343 30,000 -49 Descending Salt Lake Center
Mon 11:02:04 AM 40.1453 -110.0003 273° West 312 359 30,000  Level Salt Lake Center
Mon 11:03:06 AM 40.1497 -110.1153 273° West 328 377 30,000  Level Salt Lake Center
Mon 11:04:07 AM 40.1481 -110.2572 269° West 348 400 30,000  Level Salt Lake Center
Mon 11:06:10 AM 40.1456 -110.5197 269° West 347 399 30,000  Level Salt Lake Center
Mon 11:07:12 AM 40.1442 -110.6350 269° West 333 383 30,000  Level Salt Lake Center
Mon 11:08:14 AM 40.1431 -110.7458 269° West 322 371 30,000 -774 Level Salt Lake Center
Mon 11:09:16 AM 40.1425 -110.8700 270° West 308 354 28,400 -1,756 Descending Salt Lake Center
Mon 11:10:17 AM 40.1406 -110.9733 269° West 291 335 26,400 -1,951 Descending Salt Lake Center
Mon 11:11:19 AM 40.1397 -111.0742 269° West 279 321 24,400 -1,887 Descending Salt Lake Center
Mon 11:12:21 AM 40.1381 -111.1767 269° West 281 323 22,500 -1,887 Descending Salt Lake Center
Mon 11:13:23 AM 40.1367 -111.2797 269° West 284 327 20,500 -2,049 Descending Salt Lake Center
Mon 11:14:24 AM 40.1356 -111.3956 269° West 272 313 18,300 -1,951 Descending Salt Lake Center
Mon 11:15:26 AM 40.1322 -111.4958 268° West 273 314 16,500 -1,346 Descending Salt Lake Center
Mon 11:16:11 AM 40.1358 -111.5764 273° West 263 303 15,900 -484 Descending Salt Lake Center
Mon 11:16:28 AM 40.1461 -111.5897 315° West 266 306 16,000 76 Climbing Salt Lake Center
Mon 11:17:30 AM 40.1778 -111.6725 297° West 256 295 16,000 -393 Level Salt Lake Center
Mon 11:18:30 AM 40.2256 -111.7539 308° West 260 299 15,200 -900 Descending Salt Lake Center
Mon 11:19:30 AM 40.2822 -111.8106 323° Northwest 257 296 14,200 -1,240 Descending Salt Lake Center
Mon 11:20:31 AM 40.3406 -111.8667 324° Northwest 258 297 12,700 -1,606 Descending Salt Lake Center
Mon 11:21:37 AM 40.4072 -111.9278 325° Northwest 262 302 10,800 -1,701 Descending Salt Lake Center
Mon 11:22:38 AM 40.4742 -111.9650 337° Northwest 260 299 9,100 -1,377 Descending Salt Lake Center
Mon 11:23:39 AM 40.5425 -111.9728 355° North 249 287 8,000 -720 Descending Salt Lake Center
Mon 11:24:43 AM 40.6000 -111.9744 359° North 206 237 7,600 -667 Descending Salt Lake Center
Mon 11:25:45 AM 40.6500 -111.9806 355° North 183 211 6,600 -864 Descending Salt Lake Center
Mon 11:26:41 AM 40.6944 -111.9892 352° North 160 184 5,900 -800 Descending Salt Lake Center
Mon 11:27:30 AM 40.7272 -111.9922 356° North 145 167 5,200 -706 Descending Salt Lake Center
Mon 11:27:49 AM 40.7331 -111.9903 14° North 144 166 5,100 -716 Descending Salt Lake Center
Mon 11:28:37 AM 40.7692 -111.9978 351° North 142 163 4,400 -875 Descending Salt Lake Center
Mon 11:30:00 AM 40.7833 -111.9667 North  Level FlightAware Approximate
Mon 11:37:00 AM 40.7884 -111.9778 North  Level Estimated

Login

Don't have an account? Register now (free) for customized features, flight alerts, and more!